EW1732 Weather Reports


Display with metric or nautical units.
time (UTC)temp
F
wind
direction
speed
MPH
gust
MPH
rain 1hr
in
rain 24hr
in
rain mn
in
humidity
%
barometer
mb
20260507134002 49 91 1.0 4.0 0.00 0.22 0.12 84 1010.7
20260507133007 49 69 0.0 3.0 0.00 0.22 0.12 86 1010.7
20260507132007 48 121 0.0 3.0 0.00 0.22 0.12 89 1010.6
20260507130952 48 1 0.0 8.0 0.00 0.22 0.12 90 1010.7
20260507125957 48 323 0.0 2.0 0.00 0.22 0.12 93 1010.6
20260507124948 48 115 0.0 2.0 0.00 0.22 0.12 95 1010.5
20260507124002 47 317 1.0 8.0 0.00 0.22 0.12 95 1010.5
20260507122933 47 136 0.0 4.0 0.00 0.22 0.12 96 1010.6
20260507121953 47 114 0.0 3.0 0.00 0.22 0.12 96 1010.6
20260507120947 46 226 0.0 2.0 0.00 0.22 0.12 96 1010.6
20260507115922 47 229 0.0 3.0 0.00 0.22 0.12 96 1010.4
20260507114910 47 333 0.0 3.0 0.00 0.22 0.12 97 1010.3
20260507113914 46 136 0.0 2.0 0.00 0.22 0.12 97 1010.3
20260507112856 46 243 0.0 0.0 0.00 0.22 0.12 97 1010.2
20260507111900 47 246 0.0 0.0 0.00 0.22 0.12 97 1010.2
20260507110834 47 254 0.0 0.0 0.00 0.22 0.12 97 1010.1
20260507105845 47 190 0.0 1.0 0.00 0.22 0.12 97 1009.9
20260507103719 47 148 0.0 0.0 0.00 0.22 0.12 97 1009.7
20260507102645 47 174 0.0 0.0 0.00 0.22 0.12 97 1009.5
20260507100526 47 233 0.0 0.0 0.00 0.22 0.12 97 1009.4
20260507095538 47 230 0.0 2.0 0.00 0.22 0.12 97 1009.2
20260507094544 47 217 0.0 0.0 0.00 0.22 0.12 97 1009.1
20260507093510 47 231 0.0 0.0 0.00 0.22 0.12 97 1008.8
20260507092530 47 264 0.0 0.0 0.00 0.22 0.12 97 1009.0
20260507090443 48 253 0.0 0.0 0.00 0.22 0.12 97 1009.0
20260507085501 48 321 0.0 0.0 0.00 0.22 0.12 97 1008.8
20260507084452 48 319 0.0 0.0 0.00 0.22 0.12 97 1009.1
20260507083452 48 292 0.0 0.0 0.00 0.22 0.12 97 1008.7
20260507081338 48 141 0.0 0.0 0.00 0.20 0.10 97 1009.0
20260507080339 48 239 0.0 1.0 0.00 0.20 0.10 97 1009.0
20260507075333 48 310 0.0 0.0 0.00 0.20 0.10 97 1009.3
20260507072011 49 242 0.0 0.0 0.12 0.18 0.09 97 1009.0
20260507071026 49 241 0.0 0.0 0.06 0.16 0.06 97 1009.3
20260507070043 49 299 0.0 0.0 0.08 0.14 0.05 97 1009.0
20260507065104 49 299 0.0 0.0 0.13 0.13 0.04 97 1008.9
20260507064119 49 198 0.0 0.0 0.06 0.11 0.02 96 1009.0
20260507063139 49 169 0.0 0.0 0.06 0.10 0.02 97 1008.9
20260507062122 49 173 0.0 0.0 0.00 0.09 0.00 96 1009.0
20260507061106 50 262 0.0 0.0 0.00 0.09 0.00 96 1008.6
20260507060047 50 139 0.0 0.0 0.00 0.09 0.00 96 1008.2
20260507055044 50 186 0.0 1.0 0.00 0.09 0.00 96 1008.2
20260507054101 50 214 0.0 0.0 0.00 0.09 0.00 96 1008.2
20260507053123 50 245 0.0 0.0 0.00 0.09 0.00 96 1008.3
20260507052109 50 212 0.0 0.0 0.00 0.09 0.00 96 1008.6
20260507051045 50 241 0.0 0.0 0.00 0.09 0.00 96 1008.5
20260507050058 51 237 0.0 0.0 0.00 0.09 0.00 96 1008.6
20260507045117 51 237 0.0 0.0 0.00 0.09 0.00 96 1008.6
20260507044048 51 209 0.0 0.0 0.00 0.09 0.00 96 1008.7
20260507043032 51 232 0.0 0.0 0.00 0.09 0.00 96 1008.9
20260507042016 51 224 0.0 0.0 0.00 0.09 0.00 96 1008.9
20260507035827 52 246 0.0 0.0 0.00 0.09 0.10 96 1008.7
20260507033758 52 77 0.0 0.0 0.00 0.09 0.10 96 1008.4
20260507031705 53 240 0.0 0.0 0.00 0.09 0.10 96 1008.5
20260507030712 54 193 0.0 0.0 0.00 0.09 0.10 96 1008.8
20260507025640 56 247 0.0 1.0 0.00 0.09 0.10 96 1008.5
20260507024636 58 324 0.0 4.0 0.00 0.09 0.10 97 1008.3
20260507023624 59 332 0.0 1.0 0.00 0.09 0.10 98 1008.2
20260507022612 59 104 0.0 0.0 0.00 0.09 0.10 98 1008.3
20260507021553 59 266 0.0 1.0 0.00 0.09 0.10 98 1008.1
20260507020609 60 335 0.0 0.0 0.00 0.09 0.10 98 1008.0
20260507015552 60 223 0.0 1.0 0.00 0.09 0.10 98 1007.9
20260507014534 60 99 0.0 1.0 0.00 0.09 0.10 98 1008.0
20260507013522 60 53 0.0 0.0 0.00 0.09 0.10 98 1007.7
20260507012510 60 151 0.0 0.0 0.00 0.09 0.10 98 1007.7
20260507011517 60 135 0.0 0.0 0.00 0.09 0.10 98 1007.5
20260507010530 60 210 0.0 0.0 0.00 0.09 0.10 98 1007.5
20260507004337 60 141 0.0 0.0 0.00 0.09 0.10 98 1007.3
20260507003401 60 140 0.0 0.0 0.00 0.09 0.10 98 1007.2
20260507002330 60 139 0.0 0.0 0.00 0.09 0.10 98 1007.1
20260507001304 60 135 0.0 0.0 0.00 0.09 0.10 98 1007.1
20260507000254 60 98 0.0 0.0 0.00 0.09 0.10 98 1007.1
20260506235238 60 349 0.0 0.0 0.00 0.09 0.10 98 1006.9
20260506234229 60 144 0.0 0.0 0.00 0.09 0.10 98 1006.6
20260506232042 60 138 0.0 2.0 0.00 0.09 0.10 98 1006.9
20260506231022 60 173 0.0 0.0 0.00 0.09 0.10 98 1006.9
20260506230018 60 156 0.0 0.0 0.00 0.09 0.10 98 1006.8
20260506222631 60 139 0.0 0.0 0.00 0.09 0.10 98 1006.4
20260506221644 60 181 0.0 0.0 0.00 0.09 0.10 98 1006.3
20260506215533 60 245 0.0 0.0 0.00 0.09 0.10 97 1006.3
20260506213419 60 144 0.0 0.0 0.00 0.09 0.10 97 1006.1
20260506205029 59 146 0.0 0.0 0.04 0.09 0.09 97 1005.9
20260506203956 59 136 0.0 1.0 0.06 0.09 0.09 97 1006.2
20260506202945 59 133 0.0 0.0 0.05 0.08 0.08 97 1006.2
20260506201933 60 155 0.0 1.0 0.00 0.06 0.06 97 1006.2
20260506200914 60 141 0.0 0.0 0.04 0.06 0.06 97 1006.3
20260506193618 60 141 0.0 0.0 0.00 0.04 0.04 96 1006.7
20260506192610 60 145 0.0 1.0 0.00 0.03 0.03 95 1006.8
20260506190500 60 137 0.0 1.0 0.00 0.03 0.03 95 1006.8
20260506185518 60 140 0.0 0.0 0.00 0.03 0.03 94 1006.8
20260506184444 60 113 0.0 2.0 0.00 0.03 0.03 94 1007.0
20260506183447 60 163 0.0 2.0 0.00 0.03 0.03 93 1007.1
20260506182422 60 150 0.0 3.0 0.00 0.03 0.03 93 1007.2
20260506181439 60 133 0.0 3.0 0.00 0.03 0.03 91 1007.3
20260506180503 61 141 0.0 2.0 0.00 0.02 0.02 91 1007.5
20260506174418 61 183 0.0 2.0 0.00 0.02 0.02 89 1007.5
20260506173402 61 141 0.0 2.0 0.00 0.02 0.02 89 1007.3
20260506172425 62 124 0.0 2.0 0.00 0.02 0.02 88 1007.2
20260506171403 63 140 0.0 2.0 0.00 0.01 0.01 86 1007.4
20260506170420 63 145 0.0 2.0 0.00 0.01 0.01 85 1007.5
20260506165352 64 146 0.0 2.0 0.00 0.00 0.00 83 1007.8
20260506164345 65 138 0.0 1.0 0.00 0.00 0.00 81 1008.2
20260506162249 65 155 0.0 2.0 0.00 0.00 0.00 78 1008.4
20260506161304 65 160 0.0 2.0 0.00 0.00 0.00 79 1008.4
20260506160259 66 152 0.0 2.0 0.00 0.00 0.00 77 1008.5
20260506155312 66 153 0.0 2.0 0.00 0.00 0.00 78 1008.6
20260506154240 66 117 0.0 2.0 0.00 0.00 0.00 77 1008.7
20260506153220 67 131 0.0 2.0 0.00 0.00 0.00 76 1008.9
20260506152230 67 139 0.0 2.0 0.00 0.00 0.00 75 1008.7
20260506151213 67 134 0.0 2.0 0.00 0.00 0.00 76 1008.9
20260506150222 67 121 0.0 0.0 0.00 0.00 0.00 76 1008.8
20260506145213 66 153 0.0 2.0 0.00 0.00 0.00 76 1008.9
20260506144219 66 154 0.0 2.0 0.00 0.00 0.00 77 1008.9
20260506143202 66 88 0.0 3.0 0.00 0.00 0.00 77 1008.8
20260506142207 66 157 1.0 4.0 0.00 0.00 0.00 77 1008.9
20260506141202 66 131 1.0 4.0 0.00 0.00 0.00 77 1009.1
20260506140158 65 233 1.0 4.0 0.00 0.00 0.00 78 1008.9
20260506135142 65 115 1.0 3.0 0.00 0.00 0.00 78 1008.8